Simultaneous Nadir Overpasses (SNOs) Predictions

Prediction of SNOs between NOAA-19 and METOP-C Satellite Orbit:

Table of predicted SNOs for the next 14.0 days since TLE Epoch: 8/12/2023
Index Date (NOAA-19) Time (NOAA-19) Lat,Lon (NOAA-19) SZA (NOAA-19 ) Date (METOP-C) Time (METOP-C) Lat,Lon (METOP-C) SZA (METOP-C ) Distance(km) Time Diff (sec)
1 08/15/2023 09:44:39 80.86, 66.59 68.17 08/15/2023 09:45:54 80.86, 66.61 68.20 0.65 75
2 08/15/2023 10:35:39 -80.87,-125.81 111.78 08/15/2023 10:36:34 -80.87,-125.79 111.76 0.47 55
3 08/15/2023 11:26:37 80.87, 41.44 68.23 08/15/2023 11:27:15 80.87, 41.53 68.26 1.74 38
4 08/15/2023 12:17:38 -80.87,-151.33 111.76 08/15/2023 12:17:56 -80.87,-151.22 111.75 1.93 18
5 08/15/2023 13:08:35 80.88, 16.28 68.29 08/15/2023 13:08:36 80.89, 16.46 68.31 3.27 1
6 08/15/2023 13:59:36 -80.88,-176.48 111.71 08/15/2023 13:59:17 -80.88,-176.30 111.69 3.24 19
7 08/15/2023 14:50:33 80.89, -8.88 68.35 08/15/2023 14:49:58 80.88, -8.98 68.32 1.82 35
8 08/15/2023 15:41:34 -80.88, 158.37 111.65 08/15/2023 15:40:39 -80.88, 158.26 111.68 1.93 55



Historial Predications of SNOs between NOAA-19 and METOP-C
